Year,Month,Day,Hour,Minute,Value (Times are PST for temperature in C)
2016,08,19,00,00,20.20
2016,08,19,00,01,20.20
2016,08,19,00,02,20.20
2016,08,19,00,03,20.20
2016,08,19,00,04,20.30
2016,08,19,00,05,20.30
2016,08,19,00,06,20.30
2016,08,19,00,07,20.30
2016,08,19,00,08,20.30
2016,08,19,00,09,20.30
2016,08,19,00,10,20.30
2016,08,19,00,11,20.40
2016,08,19,00,12,20.40
2016,08,19,00,13,20.40
2016,08,19,00,14,20.50
2016,08,19,00,15,20.50
2016,08,19,00,16,20.50
2016,08,19,00,17,20.60
2016,08,19,00,18,20.60
2016,08,19,00,19,20.60
2016,08,19,00,20,20.60
2016,08,19,00,21,20.60
2016,08,19,00,22,20.60
2016,08,19,00,23,20.60
2016,08,19,00,24,20.50
2016,08,19,00,25,20.50
2016,08,19,00,26,20.40
2016,08,19,00,27,20.40
2016,08,19,00,28,20.30
2016,08,19,00,29,20.30
2016,08,19,00,30,20.30
2016,08,19,00,31,20.20
2016,08,19,00,32,20.20
2016,08,19,00,33,20.10
2016,08,19,00,34,20.10
2016,08,19,00,35,20.10
2016,08,19,00,36,20.00
2016,08,19,00,37,20.00
2016,08,19,00,38,20.00
2016,08,19,00,39,20.00
2016,08,19,00,40,20.00
2016,08,19,00,41,20.00
2016,08,19,00,42,20.00
2016,08,19,00,43,20.00
2016,08,19,00,44,20.00
2016,08,19,00,45,20.00
2016,08,19,00,46,20.10
2016,08,19,00,47,20.00
2016,08,19,00,48,20.10
2016,08,19,00,49,20.10
2016,08,19,00,50,20.10
2016,08,19,00,51,20.10
2016,08,19,00,52,20.10
2016,08,19,00,53,20.10
2016,08,19,00,54,20.10
2016,08,19,00,55,20.10
2016,08,19,00,56,20.10
2016,08,19,00,57,20.10
2016,08,19,00,58,20.10
2016,08,19,00,59,20.10
2016,08,19,01,00,20.10
2016,08,19,01,01,20.10
2016,08,19,01,02,20.00
2016,08,19,01,03,20.00
2016,08,19,01,04,20.00
2016,08,19,01,05,19.90
2016,08,19,01,06,19.90
2016,08,19,01,07,19.80
2016,08,19,01,08,19.80
2016,08,19,01,09,19.80
2016,08,19,01,10,19.80
2016,08,19,01,11,19.80
2016,08,19,01,12,19.80
2016,08,19,01,13,19.80
2016,08,19,01,14,19.80
2016,08,19,01,15,19.80
2016,08,19,01,16,19.80
2016,08,19,01,17,19.80
2016,08,19,01,18,19.90
2016,08,19,01,19,19.90
2016,08,19,01,20,19.90
2016,08,19,01,21,20.00
2016,08,19,01,22,20.10
2016,08,19,01,23,20.20
2016,08,19,01,24,20.40
2016,08,19,01,25,20.60
2016,08,19,01,26,20.70
2016,08,19,01,27,20.70
2016,08,19,01,28,20.80
2016,08,19,01,29,20.80
2016,08,19,01,30,20.80
2016,08,19,01,31,20.80
2016,08,19,01,32,20.80
2016,08,19,01,33,20.80
2016,08,19,01,34,20.70
2016,08,19,01,35,20.60
2016,08,19,01,36,20.60
2016,08,19,01,37,20.50
2016,08,19,01,38,20.40
2016,08,19,01,39,20.30
2016,08,19,01,40,20.20
2016,08,19,01,41,20.10
2016,08,19,01,42,20.00
2016,08,19,01,43,19.90
2016,08,19,01,44,19.80
2016,08,19,01,45,19.80
2016,08,19,01,46,19.70
2016,08,19,01,47,19.60
2016,08,19,01,48,19.50
2016,08,19,01,49,19.50
2016,08,19,01,50,19.40
2016,08,19,01,51,19.30
2016,08,19,01,52,19.20
2016,08,19,01,53,19.20
2016,08,19,01,54,19.10
2016,08,19,01,55,19.20
2016,08,19,01,56,19.20
2016,08,19,01,57,19.20
2016,08,19,01,58,19.20
2016,08,19,01,59,19.20
2016,08,19,02,00,19.10
2016,08,19,02,01,19.10
2016,08,19,02,02,19.10
2016,08,19,02,03,19.00
2016,08,19,02,04,19.00
2016,08,19,02,05,19.00
2016,08,19,02,06,19.00
2016,08,19,02,07,19.00
2016,08,19,02,08,19.00
2016,08,19,02,09,19.00
2016,08,19,02,10,19.00
2016,08,19,02,11,19.00
2016,08,19,02,12,19.00
2016,08,19,02,13,18.90
2016,08,19,02,14,19.00
2016,08,19,02,15,19.00
2016,08,19,02,16,19.00
2016,08,19,02,17,19.00
2016,08,19,02,18,19.00
2016,08,19,02,19,19.00
2016,08,19,02,20,19.00
2016,08,19,02,21,18.90
2016,08,19,02,22,18.90
2016,08,19,02,23,18.90
2016,08,19,02,24,18.90
2016,08,19,02,25,18.90
2016,08,19,02,26,18.90
2016,08,19,02,27,18.80
2016,08,19,02,28,18.80
2016,08,19,02,29,18.80
2016,08,19,02,30,18.80
2016,08,19,02,31,18.70
2016,08,19,02,32,18.70
2016,08,19,02,33,18.70
2016,08,19,02,34,18.70
2016,08,19,02,35,18.60
2016,08,19,02,36,18.60
2016,08,19,02,37,18.60
2016,08,19,02,38,18.60
2016,08,19,02,39,18.50
2016,08,19,02,40,18.50
2016,08,19,02,41,18.50
2016,08,19,02,42,18.40
2016,08,19,02,43,18.40
2016,08,19,02,44,18.40
2016,08,19,02,45,18.30
2016,08,19,02,46,18.30
2016,08,19,02,47,18.30
2016,08,19,02,48,18.20
2016,08,19,02,49,18.20
2016,08,19,02,50,18.10
2016,08,19,02,51,18.10
2016,08,19,02,52,18.00
2016,08,19,02,53,18.00
2016,08,19,02,54,18.00
2016,08,19,02,55,17.90
2016,08,19,02,56,17.90
2016,08,19,02,57,17.90
2016,08,19,02,58,17.90
2016,08,19,02,59,17.90
2016,08,19,03,00,17.90
2016,08,19,03,01,17.90
2016,08,19,03,02,17.90
2016,08,19,03,03,17.90
2016,08,19,03,04,17.90
2016,08,19,03,05,17.90
2016,08,19,03,06,17.80
2016,08,19,03,07,17.80
2016,08,19,03,08,17.80
2016,08,19,03,09,17.80
2016,08,19,03,10,17.80
2016,08,19,03,11,17.80
2016,08,19,03,12,17.80
2016,08,19,03,13,17.80
2016,08,19,03,14,17.80
2016,08,19,03,15,17.90
2016,08,19,03,16,17.90
2016,08,19,03,17,17.90
2016,08,19,03,18,17.90
2016,08,19,03,19,17.90
2016,08,19,03,20,17.90
2016,08,19,03,21,17.90
2016,08,19,03,22,17.90
2016,08,19,03,23,17.90
2016,08,19,03,24,17.90
2016,08,19,03,25,17.90
2016,08,19,03,26,17.90
2016,08,19,03,27,17.90
2016,08,19,03,28,17.90
2016,08,19,03,29,17.90
2016,08,19,03,30,17.90
2016,08,19,03,31,17.90
2016,08,19,03,32,17.90
2016,08,19,03,33,17.90
2016,08,19,03,34,17.90
2016,08,19,03,35,17.90
2016,08,19,03,36,17.80
2016,08,19,03,37,17.80
2016,08,19,03,38,17.80
2016,08,19,03,39,17.80
2016,08,19,03,40,17.80
2016,08,19,03,41,17.80
2016,08,19,03,42,17.70
2016,08,19,03,43,17.70
2016,08,19,03,44,17.70
2016,08,19,03,45,17.70
2016,08,19,03,46,17.70
2016,08,19,03,47,17.70
2016,08,19,03,48,17.60
2016,08,19,03,49,17.60
2016,08,19,03,50,17.60
2016,08,19,03,51,17.60
2016,08,19,03,52,17.60
2016,08,19,03,53,17.60
2016,08,19,03,54,17.60
2016,08,19,03,55,17.60
2016,08,19,03,56,17.60
2016,08,19,03,57,17.50
2016,08,19,03,58,17.50
2016,08,19,03,59,17.50
2016,08,19,04,00,17.40
2016,08,19,04,01,17.40
2016,08,19,04,02,17.40
2016,08,19,04,03,17.40
2016,08,19,04,04,17.30
2016,08,19,04,05,17.30
2016,08,19,04,06,17.30
2016,08,19,04,07,17.30
2016,08,19,04,08,17.20
2016,08,19,04,09,17.20
2016,08,19,04,10,17.20
2016,08,19,04,11,17.20
2016,08,19,04,12,17.10
2016,08,19,04,13,17.00
2016,08,19,04,14,17.00
2016,08,19,04,15,16.90
2016,08,19,04,16,16.90
2016,08,19,04,17,16.90
2016,08,19,04,18,16.90
2016,08,19,04,19,16.80
2016,08,19,04,20,16.80
2016,08,19,04,21,16.80
2016,08,19,04,22,16.80
2016,08,19,04,23,16.80
2016,08,19,04,24,16.80
2016,08,19,04,25,16.80
2016,08,19,04,26,16.80
2016,08,19,04,27,16.70
2016,08,19,04,28,16.70
2016,08,19,04,29,16.70
2016,08,19,04,30,16.70
2016,08,19,04,31,16.70
2016,08,19,04,32,16.70
2016,08,19,04,33,16.70
2016,08,19,04,34,16.70
2016,08,19,04,35,16.70
2016,08,19,04,36,16.70
2016,08,19,04,37,16.70
2016,08,19,04,38,16.70
2016,08,19,04,39,16.80
2016,08,19,04,40,16.80
2016,08,19,04,41,16.80
2016,08,19,04,42,16.80
2016,08,19,04,43,16.80
2016,08,19,04,44,16.80
2016,08,19,04,45,16.80
2016,08,19,04,46,16.80
2016,08,19,04,47,16.80
2016,08,19,04,48,16.80
2016,08,19,04,49,16.80
2016,08,19,04,50,16.70
2016,08,19,04,51,16.70
2016,08,19,04,52,16.70
2016,08,19,04,53,16.60
2016,08,19,04,54,16.50
2016,08,19,04,55,16.50
2016,08,19,04,56,16.40
2016,08,19,04,57,16.40
2016,08,19,04,58,16.30
2016,08,19,04,59,16.30
2016,08,19,05,00,16.30
2016,08,19,05,01,16.30
2016,08,19,05,02,16.20
2016,08,19,05,03,16.20
2016,08,19,05,04,16.20
2016,08,19,05,05,16.20
2016,08,19,05,06,16.20
2016,08,19,05,07,16.10
2016,08,19,05,08,16.10
2016,08,19,05,09,16.10
2016,08,19,05,10,16.10
2016,08,19,05,11,16.10
2016,08,19,05,12,16.10
2016,08,19,05,13,16.10
2016,08,19,05,14,16.00
2016,08,19,05,15,16.00
2016,08,19,05,16,16.00
2016,08,19,05,17,16.00
2016,08,19,05,18,16.00
2016,08,19,05,19,15.90
2016,08,19,05,20,15.90
2016,08,19,05,21,15.90
2016,08,19,05,22,15.90
2016,08,19,05,23,15.90
2016,08,19,05,24,15.90
2016,08,19,05,25,15.90
2016,08,19,05,26,15.90
2016,08,19,05,27,15.90
2016,08,19,05,28,15.90
2016,08,19,05,29,15.90
2016,08,19,05,30,16.00
2016,08,19,05,31,16.00
2016,08,19,05,32,16.00
2016,08,19,05,33,16.00
2016,08,19,05,34,15.90
2016,08,19,05,35,15.90
2016,08,19,05,36,15.90
2016,08,19,05,37,15.90
2016,08,19,05,38,15.80
2016,08,19,05,39,15.80
2016,08,19,05,40,15.80
2016,08,19,05,41,15.80
2016,08,19,05,42,15.80
2016,08,19,05,43,15.70
2016,08,19,05,44,15.70
2016,08,19,05,45,15.70
2016,08,19,05,46,15.70
2016,08,19,05,47,15.60
2016,08,19,05,48,15.60
2016,08,19,05,49,15.60
2016,08,19,05,50,15.60
2016,08,19,05,51,15.60
2016,08,19,05,52,15.60
2016,08,19,05,53,15.60
2016,08,19,05,54,15.60
2016,08,19,05,55,15.60
2016,08,19,05,56,15.60
2016,08,19,05,57,15.50
2016,08,19,05,58,15.50
2016,08,19,05,59,15.50
2016,08,19,06,00,15.60
2016,08,19,06,01,15.60
2016,08,19,06,02,15.60
2016,08,19,06,03,15.60
2016,08,19,06,04,15.70
2016,08,19,06,05,15.70
2016,08,19,06,06,15.70
2016,08,19,06,07,15.70
2016,08,19,06,08,15.70
2016,08,19,06,09,15.70
2016,08,19,06,10,15.70
2016,08,19,06,11,15.70
2016,08,19,06,12,15.70
2016,08,19,06,13,15.70
2016,08,19,06,14,15.70
2016,08,19,06,15,15.70
2016,08,19,06,16,15.70
2016,08,19,06,17,15.70
2016,08,19,06,18,15.60
2016,08,19,06,19,15.60
2016,08,19,06,20,15.60
2016,08,19,06,21,15.60
2016,08,19,06,22,15.60
2016,08,19,06,23,15.60
2016,08,19,06,24,15.50
2016,08,19,06,25,15.50
2016,08,19,06,26,15.40
2016,08,19,06,27,15.40
2016,08,19,06,28,15.40
2016,08,19,06,29,15.40
2016,08,19,06,30,15.40
2016,08,19,06,31,15.40
2016,08,19,06,32,15.40
2016,08,19,06,33,15.30
2016,08,19,06,34,15.30
2016,08,19,06,35,15.30
2016,08,19,06,36,15.30
2016,08,19,06,37,15.30
2016,08,19,06,38,15.30
2016,08,19,06,39,15.30
2016,08,19,06,40,15.20
2016,08,19,06,41,15.20
2016,08,19,06,42,15.20
2016,08,19,06,43,15.20
2016,08,19,06,44,15.20
2016,08,19,06,45,15.20
2016,08,19,06,46,15.20
2016,08,19,06,47,15.20
2016,08,19,06,48,15.20
2016,08,19,06,49,15.20
2016,08,19,06,50,15.20
2016,08,19,06,51,15.20
2016,08,19,06,52,15.20
2016,08,19,06,53,15.20
2016,08,19,06,54,15.30
2016,08,19,06,55,15.30
2016,08,19,06,56,15.30
2016,08,19,06,57,15.30
2016,08,19,06,58,15.30
2016,08,19,06,59,15.30
2016,08,19,07,00,15.30
2016,08,19,07,01,15.30
2016,08,19,07,02,15.40
2016,08,19,07,03,15.40
2016,08,19,07,04,15.30
2016,08,19,07,05,15.30
2016,08,19,07,06,15.30
2016,08,19,07,07,15.30
2016,08,19,07,08,15.30
2016,08,19,07,09,15.30
2016,08,19,07,10,15.30
2016,08,19,07,11,15.30
2016,08,19,07,12,15.30
2016,08,19,07,13,15.30
2016,08,19,07,14,15.30
2016,08,19,07,15,15.30
2016,08,19,07,16,15.30
2016,08,19,07,17,15.40
2016,08,19,07,18,15.40
2016,08,19,07,19,15.40
2016,08,19,07,20,15.40
2016,08,19,07,21,15.40
2016,08,19,07,22,15.50
2016,08,19,07,23,15.50
2016,08,19,07,24,15.60
2016,08,19,07,25,15.60
2016,08,19,07,26,15.60
2016,08,19,07,27,15.70
2016,08,19,07,28,15.70
2016,08,19,07,29,15.80
2016,08,19,07,30,15.80
2016,08,19,07,31,15.90
2016,08,19,07,32,15.90
2016,08,19,07,33,16.00
2016,08,19,07,34,16.10
2016,08,19,07,35,16.20
2016,08,19,07,36,16.30
2016,08,19,07,37,16.40
2016,08,19,07,38,16.60
2016,08,19,07,39,16.70
2016,08,19,07,40,16.80
2016,08,19,07,41,16.90
2016,08,19,07,42,17.00
2016,08,19,07,43,17.10
2016,08,19,07,44,17.20
2016,08,19,07,45,17.30
2016,08,19,07,46,17.30
2016,08,19,07,47,17.40
2016,08,19,07,48,17.50
2016,08,19,07,49,17.60
2016,08,19,07,50,17.70
2016,08,19,07,51,17.70
2016,08,19,07,52,17.80
2016,08,19,07,53,17.90
2016,08,19,07,54,17.90
2016,08,19,07,55,18.00
2016,08,19,07,56,18.10
2016,08,19,07,57,18.20
2016,08,19,07,58,18.30
2016,08,19,07,59,18.40
2016,08,19,08,00,18.60
2016,08,19,08,01,18.70
2016,08,19,08,02,18.80
2016,08,19,08,03,18.90
2016,08,19,08,04,19.00
2016,08,19,08,05,19.20
2016,08,19,08,06,19.30
2016,08,19,08,07,19.40
2016,08,19,08,08,19.50
2016,08,19,08,09,19.60
2016,08,19,08,10,19.70
2016,08,19,08,11,19.80
2016,08,19,08,12,19.80
2016,08,19,08,13,19.90
2016,08,19,08,14,20.00
2016,08,19,08,15,20.00
2016,08,19,08,16,20.10
2016,08,19,08,17,20.20
2016,08,19,08,18,20.20
2016,08,19,08,19,20.30
2016,08,19,08,20,20.30
2016,08,19,08,21,20.40
2016,08,19,08,22,20.40
2016,08,19,08,23,20.40
2016,08,19,08,24,20.50
2016,08,19,08,25,20.50
2016,08,19,08,26,20.50
2016,08,19,08,27,20.50
2016,08,19,08,28,20.60
2016,08,19,08,29,20.60
2016,08,19,08,30,20.60
2016,08,19,08,31,20.70
2016,08,19,08,32,20.80
2016,08,19,08,33,20.90
2016,08,19,08,34,21.00
2016,08,19,08,35,21.10
2016,08,19,08,36,21.20
2016,08,19,08,37,21.30
2016,08,19,08,38,21.40
2016,08,19,08,39,21.40
2016,08,19,08,40,21.40
2016,08,19,08,41,21.30
2016,08,19,08,42,21.10
2016,08,19,08,43,21.00
2016,08,19,08,44,20.80
2016,08,19,08,45,20.70
2016,08,19,08,46,20.60
2016,08,19,08,47,20.40
2016,08,19,08,48,20.40
2016,08,19,08,49,20.30
2016,08,19,08,50,20.30
2016,08,19,08,51,20.30
2016,08,19,08,52,20.30
2016,08,19,08,53,20.30
2016,08,19,08,54,20.30
2016,08,19,08,55,20.40
2016,08,19,08,56,20.50
2016,08,19,08,57,20.60
2016,08,19,08,58,20.60
2016,08,19,08,59,20.70
2016,08,19,09,00,20.80
2016,08,19,09,01,20.90
2016,08,19,09,02,20.90
2016,08,19,09,03,21.00
2016,08,19,09,04,21.10
2016,08,19,09,05,21.10
2016,08,19,09,06,21.20
2016,08,19,09,07,21.30
2016,08,19,09,08,21.30
2016,08,19,09,09,21.40
2016,08,19,09,10,21.50
2016,08,19,09,11,21.60
2016,08,19,09,12,21.80
2016,08,19,09,13,21.90
2016,08,19,09,14,22.00
2016,08,19,09,15,22.00
2016,08,19,09,16,22.00
2016,08,19,09,17,21.90
2016,08,19,09,18,21.90
2016,08,19,09,19,22.00
2016,08,19,09,20,22.00
2016,08,19,09,21,21.90
2016,08,19,09,22,21.90
2016,08,19,09,23,21.90
2016,08,19,09,24,21.80
2016,08,19,09,25,21.80
2016,08,19,09,26,21.90
2016,08,19,09,27,21.90
2016,08,19,09,28,22.00
2016,08,19,09,29,22.10
2016,08,19,09,30,22.20
2016,08,19,09,31,22.30
2016,08,19,09,32,22.30
2016,08,19,09,33,22.30
2016,08,19,09,34,22.30
2016,08,19,09,35,22.30
2016,08,19,09,36,22.30
2016,08,19,09,37,22.20
2016,08,19,09,38,22.10
2016,08,19,09,39,22.00
2016,08,19,09,40,21.90
2016,08,19,09,41,21.90
2016,08,19,09,42,21.90
2016,08,19,09,43,21.90
2016,08,19,09,44,21.90
2016,08,19,09,45,22.00
2016,08,19,09,46,22.00
2016,08,19,09,47,22.00
2016,08,19,09,48,22.10
2016,08,19,09,49,22.10
2016,08,19,09,50,22.20
2016,08,19,09,51,22.30
2016,08,19,09,52,22.30
2016,08,19,09,53,22.40
2016,08,19,09,54,22.60
2016,08,19,09,55,22.70
2016,08,19,09,56,22.80
2016,08,19,09,57,22.90
2016,08,19,09,58,23.00
2016,08,19,09,59,23.10
2016,08,19,10,00,23.20
2016,08,19,10,01,23.30
2016,08,19,10,02,23.40
2016,08,19,10,03,23.60
2016,08,19,10,04,23.70
2016,08,19,10,05,23.80
2016,08,19,10,06,23.90
2016,08,19,10,07,24.00
2016,08,19,10,08,24.10
2016,08,19,10,09,24.20
2016,08,19,10,10,24.30
2016,08,19,10,11,24.40
2016,08,19,10,12,24.60
2016,08,19,10,13,24.80
2016,08,19,10,14,24.90
2016,08,19,10,15,25.10
2016,08,19,10,16,25.30
2016,08,19,10,17,25.50
2016,08,19,10,18,25.70
2016,08,19,10,19,25.80
2016,08,19,10,20,25.90
2016,08,19,10,21,26.10
2016,08,19,10,22,26.20
2016,08,19,10,23,26.20
2016,08,19,10,24,26.30
2016,08,19,10,25,26.40
2016,08,19,10,26,26.40
2016,08,19,10,27,26.40
2016,08,19,10,28,26.40
2016,08,19,10,29,26.40
2016,08,19,10,30,26.40
2016,08,19,10,31,26.40
2016,08,19,10,32,26.40
2016,08,19,10,33,26.40
2016,08,19,10,34,26.50
2016,08,19,10,35,26.50
2016,08,19,10,36,26.60
2016,08,19,10,37,26.70
2016,08,19,10,38,26.70
2016,08,19,10,39,26.70
2016,08,19,10,40,26.80
2016,08,19,10,41,26.90
2016,08,19,10,42,26.90
2016,08,19,10,43,27.00
2016,08,19,10,44,27.00
2016,08,19,10,45,27.10
2016,08,19,10,46,27.10
2016,08,19,10,47,27.20
2016,08,19,10,48,27.30
2016,08,19,10,49,27.40
2016,08,19,10,50,27.50
2016,08,19,10,51,27.60
2016,08,19,10,52,27.70
2016,08,19,10,53,27.80
2016,08,19,10,54,27.80
2016,08,19,10,55,27.80
2016,08,19,10,56,27.70
2016,08,19,10,57,27.70
2016,08,19,10,58,27.70
2016,08,19,10,59,27.70
2016,08,19,11,00,27.70
2016,08,19,11,01,27.50
2016,08,19,11,02,27.20
2016,08,19,11,03,27.00
2016,08,19,11,04,26.80
2016,08,19,11,05,26.50
2016,08,19,11,06,26.20
2016,08,19,11,07,26.00
2016,08,19,11,08,25.80
2016,08,19,11,09,25.50
2016,08,19,11,10,25.30
2016,08,19,11,11,25.10
2016,08,19,11,12,25.00
2016,08,19,11,13,24.90
2016,08,19,11,14,24.70
2016,08,19,11,15,24.60
2016,08,19,11,16,24.50
2016,08,19,11,17,24.40
2016,08,19,11,18,24.30
2016,08,19,11,19,24.30
2016,08,19,11,20,24.30
2016,08,19,11,21,24.30
2016,08,19,11,22,24.30
2016,08,19,11,23,24.30
2016,08,19,11,24,24.30
2016,08,19,11,25,24.30
2016,08,19,11,26,24.30
2016,08,19,11,27,24.50
2016,08,19,11,28,24.60
2016,08,19,11,29,24.70
2016,08,19,11,30,24.80
2016,08,19,11,31,24.90
2016,08,19,11,32,25.00
2016,08,19,11,33,25.00
2016,08,19,11,34,25.10
2016,08,19,11,35,25.20
2016,08,19,11,36,25.20
2016,08,19,11,37,25.30
2016,08,19,11,38,25.40
2016,08,19,11,39,25.50
2016,08,19,11,40,25.50
2016,08,19,11,41,25.60
2016,08,19,11,42,25.70
2016,08,19,11,43,25.70
2016,08,19,11,44,25.70
2016,08,19,11,45,25.80
2016,08,19,11,46,25.90
2016,08,19,11,47,25.90
2016,08,19,11,48,25.90
2016,08,19,11,49,25.90
2016,08,19,11,50,25.90
2016,08,19,11,51,26.00
2016,08,19,11,52,26.00
2016,08,19,11,53,26.00
2016,08,19,11,54,26.00
2016,08,19,11,55,26.00
2016,08,19,11,56,26.10
2016,08,19,11,57,26.10
2016,08,19,11,58,26.20
2016,08,19,11,59,26.20
2016,08,19,12,00,26.20
2016,08,19,12,01,26.20
2016,08,19,12,02,26.20
2016,08,19,12,03,26.20
2016,08,19,12,04,26.30
2016,08,19,12,05,26.30
2016,08,19,12,06,26.30
2016,08,19,12,07,26.30
2016,08,19,12,08,26.40
2016,08,19,12,09,26.40
2016,08,19,12,10,26.50
2016,08,19,12,11,26.60
2016,08,19,12,12,26.60
2016,08,19,12,13,26.50
2016,08,19,12,14,26.50
2016,08,19,12,15,26.40
2016,08,19,12,16,26.40
2016,08,19,12,17,26.30
2016,08,19,12,18,26.20
2016,08,19,12,19,26.20
2016,08,19,12,20,26.20
2016,08,19,12,21,26.20
2016,08,19,12,22,26.30
2016,08,19,12,23,26.30
2016,08,19,12,24,26.20
2016,08,19,12,25,26.20
2016,08,19,12,26,26.20
2016,08,19,12,27,26.20
2016,08,19,12,28,26.10
2016,08,19,12,29,26.00
2016,08,19,12,30,26.00
2016,08,19,12,31,26.00
2016,08,19,12,32,26.10
2016,08,19,12,33,26.10
2016,08,19,12,34,26.10
2016,08,19,12,35,26.20
2016,08,19,12,36,26.20
2016,08,19,12,37,26.30
2016,08,19,12,38,26.30
2016,08,19,12,39,26.30
2016,08,19,12,40,26.30
2016,08,19,12,41,26.30
2016,08,19,12,42,26.30
2016,08,19,12,43,26.40
2016,08,19,12,44,26.50
2016,08,19,12,45,26.70
2016,08,19,12,46,26.80
2016,08,19,12,47,26.90
2016,08,19,12,48,26.90
2016,08,19,12,49,26.80
2016,08,19,12,50,26.80
2016,08,19,12,51,26.70
2016,08,19,12,52,26.70
2016,08,19,12,53,26.80
2016,08,19,12,54,26.80
2016,08,19,12,55,26.80
2016,08,19,12,56,26.90
2016,08,19,12,57,26.90
2016,08,19,12,58,26.90
2016,08,19,12,59,26.90
2016,08,19,13,00,27.00
2016,08,19,13,01,27.10
2016,08,19,13,02,27.10
2016,08,19,13,03,27.20
2016,08,19,13,04,27.20
2016,08,19,13,05,27.20
2016,08,19,13,06,27.20
2016,08,19,13,07,27.10
2016,08,19,13,08,27.20
2016,08,19,13,09,27.20
2016,08,19,13,10,27.30
2016,08,19,13,11,27.30
2016,08,19,13,12,27.40
2016,08,19,13,13,27.40
2016,08,19,13,14,27.50
2016,08,19,13,15,27.50
2016,08,19,13,16,27.60
2016,08,19,13,17,27.60
2016,08,19,13,18,27.60
2016,08,19,13,19,27.70
2016,08,19,13,20,27.70
2016,08,19,13,21,27.70
2016,08,19,13,22,27.80
2016,08,19,13,23,27.80
2016,08,19,13,24,27.80
2016,08,19,13,25,27.90
2016,08,19,13,26,28.00
2016,08,19,13,27,28.00
2016,08,19,13,28,28.10
2016,08,19,13,29,28.20
2016,08,19,13,30,28.20
2016,08,19,13,31,28.20
2016,08,19,13,32,28.30
2016,08,19,13,33,28.30
2016,08,19,13,34,28.40
2016,08,19,13,35,28.50
2016,08,19,13,36,28.60
2016,08,19,13,37,28.60
2016,08,19,13,38,28.70
2016,08,19,13,39,28.80
2016,08,19,13,40,28.90
2016,08,19,13,41,29.10
2016,08,19,13,42,29.10
2016,08,19,13,43,29.10
2016,08,19,13,44,29.10
2016,08,19,13,45,29.20
2016,08,19,13,46,29.10
2016,08,19,13,47,29.10
2016,08,19,13,48,29.10
2016,08,19,13,49,29.10
2016,08,19,13,50,29.10
2016,08,19,13,51,29.20
2016,08,19,13,52,29.30
2016,08,19,13,53,29.30
2016,08,19,13,54,29.40
2016,08,19,13,55,29.40
2016,08,19,13,56,29.30
2016,08,19,13,57,29.40
2016,08,19,13,58,29.40
2016,08,19,13,59,29.40
2016,08,19,14,00,29.40
2016,08,19,14,01,29.40
2016,08,19,14,02,29.50
2016,08,19,14,03,29.50
2016,08,19,14,04,29.60
2016,08,19,14,05,29.60
2016,08,19,14,06,29.60
2016,08,19,14,07,29.70
2016,08,19,14,08,29.80
2016,08,19,14,09,29.90
2016,08,19,14,10,30.10
2016,08,19,14,11,30.10
2016,08,19,14,12,30.10
2016,08,19,14,13,30.00
2016,08,19,14,14,29.90
2016,08,19,14,15,29.90
2016,08,19,14,16,29.90
2016,08,19,14,17,30.00
2016,08,19,14,18,30.00
2016,08,19,14,19,29.90
2016,08,19,14,20,29.90
2016,08,19,14,21,29.80
2016,08,19,14,22,29.80
2016,08,19,14,23,29.70
2016,08,19,14,24,29.70
2016,08,19,14,25,29.70
2016,08,19,14,26,29.60
2016,08,19,14,27,29.60
2016,08,19,14,28,29.60
2016,08,19,14,29,29.60
2016,08,19,14,30,29.70
2016,08,19,14,31,29.70
2016,08,19,14,32,29.70
2016,08,19,14,33,29.70
2016,08,19,14,34,29.80
2016,08,19,14,35,29.80
2016,08,19,14,36,29.90
2016,08,19,14,37,29.90
2016,08,19,14,38,30.00
2016,08,19,14,39,30.10
2016,08,19,14,40,30.10
2016,08,19,14,41,30.20
2016,08,19,14,42,30.20
2016,08,19,14,43,30.30
2016,08,19,14,44,30.40
2016,08,19,14,45,30.50
2016,08,19,14,46,30.50
2016,08,19,14,47,30.60
2016,08,19,14,48,30.50
2016,08,19,14,49,30.50
2016,08,19,14,50,30.50
2016,08,19,14,51,30.50
2016,08,19,14,52,30.40
2016,08,19,14,53,30.40
2016,08,19,14,54,30.40
2016,08,19,14,55,30.50
2016,08,19,14,56,30.60
2016,08,19,14,57,30.60
2016,08,19,14,58,30.60
2016,08,19,14,59,30.60
2016,08,19,15,00,30.50
2016,08,19,15,01,30.50
2016,08,19,15,02,30.50
2016,08,19,15,03,30.60
2016,08,19,15,04,30.60
2016,08,19,15,05,30.70
2016,08,19,15,06,30.70
2016,08,19,15,07,30.80
2016,08,19,15,08,30.80
2016,08,19,15,09,30.80
2016,08,19,15,10,30.80
2016,08,19,15,11,30.80
2016,08,19,15,12,30.80
2016,08,19,15,13,30.80
2016,08,19,15,14,30.80
2016,08,19,15,15,30.80
2016,08,19,15,16,30.90
2016,08,19,15,17,31.00
2016,08,19,15,18,31.10
2016,08,19,15,19,31.20
2016,08,19,15,20,31.20
2016,08,19,15,21,31.10
2016,08,19,15,22,31.20
2016,08,19,15,23,31.20
2016,08,19,15,24,31.30
2016,08,19,15,25,31.30
2016,08,19,15,26,31.40
2016,08,19,15,27,31.40
2016,08,19,15,28,31.50
2016,08,19,15,29,31.60
2016,08,19,15,30,31.50
2016,08,19,15,31,31.40
2016,08,19,15,32,31.40
2016,08,19,15,33,31.40
2016,08,19,15,34,31.30
2016,08,19,15,35,31.30
2016,08,19,15,36,31.30
2016,08,19,15,37,31.30
2016,08,19,15,38,31.30
2016,08,19,15,39,31.30
2016,08,19,15,40,31.30
2016,08,19,15,41,31.20
2016,08,19,15,42,31.10
2016,08,19,15,43,31.00
2016,08,19,15,44,30.90
2016,08,19,15,45,30.80
2016,08,19,15,46,30.80
2016,08,19,15,47,30.70
2016,08,19,15,48,30.70
2016,08,19,15,49,30.70
2016,08,19,15,50,30.70
2016,08,19,15,51,30.70
2016,08,19,15,52,30.80
2016,08,19,15,53,31.00
2016,08,19,15,54,31.10
2016,08,19,15,55,31.20
2016,08,19,15,56,31.30
2016,08,19,15,57,31.30
2016,08,19,15,58,31.40
2016,08,19,15,59,31.50
2016,08,19,16,00,31.60
2016,08,19,16,01,31.60
2016,08,19,16,02,31.70
2016,08,19,16,03,31.80
2016,08,19,16,04,31.80
2016,08,19,16,05,31.80
2016,08,19,16,06,31.80
2016,08,19,16,07,31.70
2016,08,19,16,08,31.60
2016,08,19,16,09,31.60
2016,08,19,16,10,31.60
2016,08,19,16,11,31.60
2016,08,19,16,12,31.60
2016,08,19,16,13,31.50
2016,08,19,16,14,31.50
2016,08,19,16,15,31.40
2016,08,19,16,16,31.40
2016,08,19,16,17,31.50
2016,08,19,16,18,31.60
2016,08,19,16,19,31.60
2016,08,19,16,20,31.70
2016,08,19,16,21,31.70
2016,08,19,16,22,31.60
2016,08,19,16,23,31.60
2016,08,19,16,24,31.70
2016,08,19,16,25,31.70
2016,08,19,16,26,31.70
2016,08,19,16,27,31.70
2016,08,19,16,28,31.70
2016,08,19,16,29,31.70
2016,08,19,16,30,31.70
2016,08,19,16,31,31.70
2016,08,19,16,32,31.70
2016,08,19,16,33,31.70
2016,08,19,16,34,31.70
2016,08,19,16,35,31.70
2016,08,19,16,36,31.70
2016,08,19,16,37,31.60
2016,08,19,16,38,31.70
2016,08,19,16,39,31.70
2016,08,19,16,40,31.70
2016,08,19,16,41,31.70
2016,08,19,16,42,31.80
2016,08,19,16,43,31.80
2016,08,19,16,44,31.80
2016,08,19,16,45,31.90
2016,08,19,16,46,32.00
2016,08,19,16,47,32.00
2016,08,19,16,48,32.10
2016,08,19,16,49,32.00
2016,08,19,16,50,32.00
2016,08,19,16,51,31.90
2016,08,19,16,52,31.90
2016,08,19,16,53,31.90
2016,08,19,16,54,31.90
2016,08,19,16,55,31.90
2016,08,19,16,56,31.90
2016,08,19,16,57,31.90
2016,08,19,16,58,31.80
2016,08,19,16,59,31.80
2016,08,19,17,00,31.80
2016,08,19,17,01,31.80
2016,08,19,17,02,31.80
2016,08,19,17,03,31.80
2016,08,19,17,04,31.80
2016,08,19,17,05,31.80
2016,08,19,17,06,31.90
2016,08,19,17,07,32.00
2016,08,19,17,08,32.10
2016,08,19,17,09,32.10
2016,08,19,17,10,32.10
2016,08,19,17,11,32.10
2016,08,19,17,12,32.00
2016,08,19,17,13,31.90
2016,08,19,17,14,31.80
2016,08,19,17,15,31.80
2016,08,19,17,16,31.70
2016,08,19,17,17,31.80
2016,08,19,17,18,31.80
2016,08,19,17,19,31.90